Wind_Speed
21 22 24 26 28 29 30 29 30 30 31 31 32 32 33 34 36 36 37 38 39 39 39 40 41 41 41 41 41 41 41 41 40 40 40 40 40 40 40 40 41 41 41 41
22 22 24 25 27 29 31 31 30 29 29 30 32 32 33 34 35 35 36 36 37 38 38 38 39 39 40 40 40 40 40 40 40 39 39 39 39 39 40 40 40 41 40 40
21 21 23 26 27 28 29 30 29 28 27 29 31 32 33 33 34 35 35 36 36 37 37 38 38 38 39 39 39 40 39 39 39 39 39 39 39 39 39 39 39 40 40 40
21 21 21 23 25 26 27 28 29 28 28 27 29 30 31 33 34 34 35 35 35 36 37 38 38 38 38 38 39 39 39 39 39 39 39 39 38 38 38 38 38 39 39 39
20 22 21 21 22 23 24 25 27 27 27 27 27 28 29 31 33 34 35 35 35 36 36 37 37 38 38 37 38 38 38 38 37 38 38 38 38 38 38 38 38 38 39 39
18 20 21 21 21 22 23 24 25 26 26 26 26 26 27 30 32 33 34 35 35 35 36 36 36 37 37 37 36 36 37 37 37 37 37 37 38 38 38 38 38 39 39 39
17 18 19 21 21 22 23 23 24 25 25 25 25 26 26 28 30 31 32 33 34 35 35 35 36 36 36 36 36 36 36 37 37 36 36 36 37 37 37 38 38 38 39 39
15 16 17 19 20 21 21 21 22 23 24 24 24 24 25 26 28 30 31 32 33 33 33 33 34 35 35 35 35 36 36 36 36 36 36 36 36 36 37 37 37 37 38 38
14 15 16 17 19 20 21 21 22 22 23 23 23 23 23 24 26 28 29 31 31 32 32 33 32 33 34 34 34 34 35 35 36 36 35 35 35 35 36 36 36 37 37 37
14 14 15 16 17 19 20 21 21 22 23 24 24 24 24 24 25 26 28 29 30 31 32 32 32 33 33 33 33 33 34 34 35 35 35 35 35 35 35 35 35 35 36 36
14 15 16 16 17 18 18 20 21 21 22 23 23 23 23 24 24 25 26 27 29 30 31 31 32 32 32 32 32 32 32 33 33 33 33 33 33 33 33 34 34 35 35 35
13 14 15 15 16 16 17 18 19 19 20 22 23 22 23 24 25 25 26 27 28 29 30 30 30 30 31 31 31 31 32 32 32 31 31 31 31 32 32 33 34 34 34 34
11 13 14 14 15 16 16 17 17 18 19 20 21 21 22 24 25 25 25 25 26 26 27 28 29 29 29 30 31 31 32 31 31 30 30 30 30 31 31 32 33 33 34 33
10 10 11 12 14 14 15 16 17 17 17 18 19 19 21 22 23 24 24 25 25 25 25 26 28 29 29 29 30 30 30 30 30 30 30 29 30 30 31 31 31 32 32 32
9 10 10 10 12 12 14 15 16 16 17 17 18 18 19 21 22 23 24 24 24 24 25 26 27 27 28 28 29 29 29 29 29 29 29 29 29 29 30 30 31 31 31 31
9 9 10 10 10 11 12 14 15 16 17 17 18 18 19 20 21 23 23 24 24 24 25 26 27 27 28 28 28 28 28 28 28 28 28 29 29 29 29 29 30 30 30 30
9 9 10 10 10 11 11 12 13 15 16 17 18 18 19 19 20 21 22 23 23 24 25 25 25 26 27 28 28 28 28 28 28 28 28 29 29 29 29 29 29 29 29 29
9 10 10 11 11 11 11 11 12 13 15 16 17 17 18 19 19 20 20 21 22 23 23 23 23 24 25 26 27 28 28 28 28 28 28 28 28 28 29 29 28 28 28 28
9 10 11 11 12 12 12 12 12 12 13 15 16 17 17 18 18 18 19 19 20 21 21 22 22 23 24 25 25 26 26 26 26 26 26 26 27 28 28 28 27 27 26 26
11 11 11 12 12 13 13 13 13 13 14 14 15 16 16 17 18 18 18 18 19 20 21 21 22 23 24 24 25 25 25 25 25 25 25 25 26 27 26 26 25 24 24 23
11 11 11 11 12 12 12 13 13 14 14 14 14 15 15 16 17 17 18 19 19 20 20 21 21 21 22 22 24 24 24 24 25 25 25 25 25 25 24 24 23 22 22 21
12 12 12 12 13 13 12 12 13 14 14 15 15 15 15 16 17 17 18 18 18 19 19 20 20 20 20 21 22 22 22 23 24 24 24 24 23 23 22 21 21 20 19 19
13 13 13 13 13 13 13 13 13 13 14 15 15 15 15 16 16 17 17 17 17 17 18 18 18 19 19 19 19 19 20 21 21 21 22 21 21 20 20 19 19 18 18 17
13 13 14 14 13 13 13 13 13 14 14 14 14 15 15 15 15 15 16 15 15 16 16 17 17 17 17 17 17 18 18 18 18 18 19 19 19 18 18 17 17 16 15 14
13 14 14 14 14 13 13 13 13 13 13 13 14 14 14 14 14 14 15 15 15 15 15 15 15 15 15 15 15 15 16 16 16 16 16 16 16 16 16 15 15 14 14 13
13 13 14 14 14 14 14 13 13 12 12 12 13 13 13 13 13 14 14 14 14 14 14 14 14 14 15 14 14 14 14 15 15 15 14 14 14 14 14 14 14 14 13 13
13 13 14 14 14 14 14 13 13 12 12 12 13 13 13 12 12 12 12 12 13 13 13 13 14 14 14 14 13 13 13 13 13 13 13 13 13 13 14 14 14 13 13 13
Wind_Direction
236 235 234 233 233 232 233 233 235 236 236 235 234 234 232 231 230 229 228 229 230 231 232 233 234 235 236 238 239 242 244 246 248 250 253 255 257 260 262 265 267 269 271 273
237 237 235 232 231 231 232 232 234 234 233 233 233 233 231 230 229 229 229 229 230 230 231 233 234 235 236 238 240 242 244 246 248 250 253 255 258 261 263 266 267 269 270 272
244 241 237 232 230 231 232 233 234 235 234 232 232 233 232 230 229 229 229 229 230 230 230 232 233 235 237 238 240 242 244 246 248 250 252 255 258 261 263 265 267 269 271 272
248 242 240 235 234 235 236 234 234 235 235 233 232 232 231 230 229 228 228 229 230 231 231 232 234 236 238 239 240 242 244 247 249 251 252 255 257 260 263 265 267 269 270 272
248 246 242 238 237 235 236 233 234 234 234 232 232 232 231 231 230 229 228 229 230 231 232 232 234 236 238 239 241 242 244 247 249 250 252 255 257 259 262 265 267 269 271 273
248 244 240 238 237 235 236 234 233 234 233 232 233 231 229 230 229 229 228 229 230 231 232 232 234 236 237 239 241 242 244 246 248 250 253 256 258 260 262 264 267 269 272 275
249 246 241 237 237 234 236 235 233 232 232 231 231 231 228 229 229 229 229 229 230 231 232 233 234 235 236 238 240 242 244 245 247 249 253 256 258 260 262 265 268 271 273 276
251 246 240 238 236 237 237 234 233 232 231 229 229 229 229 230 230 230 231 231 231 232 233 234 235 236 237 239 241 242 244 245 247 249 252 256 258 260 263 266 269 272 274 277
247 244 243 240 238 237 236 234 234 234 232 231 230 228 230 231 231 230 230 231 231 232 232 234 236 237 238 239 241 243 244 246 248 250 252 255 258 260 263 266 270 272 275 277
248 241 240 240 239 237 236 237 236 236 236 235 233 231 230 231 231 231 229 231 232 232 233 234 236 238 240 241 244 246 246 247 248 250 252 254 258 260 263 267 270 272 274 276
250 243 239 239 240 239 238 238 237 237 237 238 238 236 233 232 232 232 231 231 233 233 234 236 238 239 240 242 244 245 246 248 250 251 253 255 258 261 265 268 271 273 275 277
252 245 240 238 240 239 238 236 235 236 237 238 239 239 238 235 232 231 232 234 234 234 234 235 237 239 241 243 243 244 246 248 250 251 252 255 259 263 267 271 274 276 278 278
254 247 243 241 240 238 237 236 235 236 236 236 235 236 236 235 231 231 233 235 237 237 237 238 239 240 242 243 243 244 246 248 249 250 253 256 260 264 268 272 275 278 280 280
254 248 247 244 238 236 236 234 235 236 236 235 233 233 233 232 231 230 231 234 237 238 238 239 240 241 243 245 245 246 247 248 249 251 254 258 262 266 269 273 275 278 280 280
255 250 246 241 237 234 235 234 235 237 237 237 235 234 233 231 230 229 230 233 235 238 239 240 241 242 244 246 246 247 247 248 250 253 255 259 263 267 271 274 276 278 279 279
257 253 248 245 240 237 237 237 237 236 237 238 235 235 234 232 232 232 233 234 237 239 239 240 241 243 245 246 247 247 247 248 251 254 257 260 264 268 272 274 276 278 278 278
259 255 252 249 245 243 243 243 241 237 235 234 234 234 233 233 233 235 236 237 239 240 241 241 243 244 245 246 246 245 247 251 253 255 258 261 265 268 270 272 275 277 277 277
257 252 253 252 249 249 249 247 245 241 236 234 234 235 234 233 233 235 236 238 239 239 240 241 244 246 246 245 245 246 249 251 253 256 259 262 265 269 271 273 275 276 277 277
260 257 256 255 252 249 249 248 247 245 240 238 238 237 236 235 236 236 237 238 238 238 239 243 246 247 247 245 245 245 248 251 253 257 260 264 267 271 273 274 276 277 276 276
261 261 261 257 254 251 249 249 249 247 245 244 243 241 239 238 238 239 240 241 241 241 243 245 247 248 249 247 246 248 251 253 256 259 263 266 270 272 273 273 275 275 274 275
265 262 261 259 256 255 253 250 249 248 249 248 246 244 244 243 241 242 243 244 245 244 246 247 247 247 246 247 249 251 253 254 257 260 264 268 270 270 269 270 271 272 271 272
267 264 263 260 258 258 257 255 253 251 251 250 249 246 245 245 244 244 245 246 247 247 248 247 247 247 247 249 251 253 254 255 257 259 263 266 267 266 266 267 268 267 267 271
268 265 263 261 261 260 260 259 257 254 252 250 248 246 245 245 244 244 246 247 247 247 247 247 247 248 249 250 251 253 254 256 257 259 261 262 261 261 263 264 264 264 265 269
267 265 263 262 262 260 259 259 259 255 252 249 247 244 243 243 244 244 245 247 248 247 247 248 248 249 250 250 252 254 255 257 258 259 259 259 258 259 261 262 261 258 261 263
267 264 262 261 260 259 259 260 259 255 250 247 243 241 240 241 243 244 246 247 248 249 249 248 247 249 251 252 253 255 256 256 256 258 259 258 258 258 259 257 254 255 258 258
268 264 262 261 260 258 256 255 252 249 245 243 241 239 239 241 243 245 246 245 244 244 245 247 250 251 251 252 254 255 256 255 256 257 255 254 256 258 257 254 252 252 254 255
270 266 264 263 260 255 251 248 246 244 242 241 239 239 240 241 242 244 244 242 240 241 245 249 251 251 250 251 254 255 255 254 253 254 255 256 259 259 255 251 248 249 252 254
Height
5531 5533 5536 5538 5541 5545 5548 5551 5555 5560 5563 5567 5570 5573 5577 5582 5587 5592 5597 5602 5607 5612 5617 5622 5627 5631 5636 5639 5643 5647 5650 5653 5656 5658 5660 5662 5663 5664 5665 5665 5665 5665 5665 5664
5527 5528 5530 5532 5535 5538 5541 5544 5548 5552 5556 5559 5562 5565 5569 5574 5579 5584 5589 5594 5598 5603 5608 5613 5617 5622 5626 5630 5633 5637 5640 5643 5645 5648 5650 5652 5653 5654 5655 5655 5655 5655 5655 5654
5522 5523 5524 5527 5529 5532 5535 5538 5542 5545 5549 5551 5555 5558 5561 5566 5570 5575 5581 5585 5590 5595 5599 5604 5608 5612 5616 5620 5624 5627 5630 5633 5636 5638 5640 5642 5644 5645 5646 5646 5646 5645 5645 5644
5516 5518 5519 5523 5524 5526 5529 5532 5535 5538 5541 5544 5547 5550 5554 5558 5562 5567 5572 5577 5581 5586 5591 5595 5599 5603 5607 5611 5614 5618 5621 5624 5626 5629 5631 5633 5634 5635 5636 5636 5636 5636 5635 5634
5510 5511 5514 5517 5518 5520 5523 5526 5528 5531 5534 5537 5540 5543 5547 5551 5555 5559 5564 5569 5573 5578 5582 5586 5590 5594 5598 5602 5605 5608 5611 5614 5617 5619 5621 5623 5624 5626 5626 5627 5627 5626 5625 5624
5505 5506 5509 5512 5513 5514 5518 5520 5523 5525 5527 5530 5533 5537 5542 5544 5548 5552 5556 5561 5565 5569 5573 5577 5582 5586 5589 5593 5596 5599 5602 5605 5607 5610 5612 5613 5615 5616 5616 5617 5617 5616 5615 5614
5500 5501 5503 5506 5507 5510 5514 5516 5517 5519 5521 5524 5527 5531 5534 5537 5541 5545 5549 5553 5557 5561 5565 5569 5573 5577 5581 5584 5587 5590 5592 5595 5598 5600 5602 5603 5604 5606 5606 5607 5607 5607 5606 5605
5495 5497 5500 5500 5501 5505 5507 5508 5510 5513 5515 5518 5522 5525 5527 5530 5534 5538 5541 5545 5549 5553 5557 5561 5564 5568 5572 5575 5578 5581 5583 5586 5589 5591 5593 5594 5595 5596 5597 5597 5597 5597 5596 5595
5492 5494 5493 5494 5496 5498 5500 5503 5505 5507 5510 5513 5516 5519 5522 5524 5527 5531 5534 5538 5542 5546 5549 5553 5556 5560 5563 5566 5569 5572 5574 5577 5579 5581 5583 5585 5586 5587 5588 5588 5588 5587 5586 5585
5487 5488 5489 5490 5491 5493 5495 5497 5499 5502 5505 5507 5510 5513 5515 5518 5521 5524 5527 5531 5534 5538 5542 5545 5549 5552 5555 5558 5561 5563 5566 5568 5570 5572 5574 5576 5577 5578 5578 5578 5578 5577 5576 5575
5482 5483 5484 5485 5486 5488 5490 5492 5494 5496 5499 5501 5504 5507 5509 5512 5514 5517 5521 5524 5527 5531 5534 5537 5541 5544 5547 5550 5552 5555 5557 5560 5561 5563 5565 5567 5568 5569 5569 5569 5568 5568 5567 5566
5478 5479 5480 5481 5482 5483 5485 5487 5489 5491 5493 5495 5498 5500 5503 5505 5508 5511 5514 5517 5520 5523 5527 5530 5533 5536 5539 5541 5544 5547 5549 5551 5553 5555 5556 5558 5559 5560 5560 5560 5559 5558 5558 5557
5474 5474 5475 5476 5477 5479 5480 5482 5484 5486 5488 5490 5492 5494 5497 5499 5502 5505 5507 5510 5513 5516 5519 5522 5525 5528 5531 5533 5536 5538 5540 5542 5544 5546 5548 5549 5550 5551 5551 5551 5550 5549 5548 5547
5471 5471 5472 5472 5473 5474 5476 5477 5479 5481 5482 5484 5486 5488 5491 5493 5496 5498 5501 5504 5507 5509 5512 5515 5518 5520 5523 5525 5528 5530 5532 5534 5536 5537 5539 5540 5541 5542 5542 5542 5541 5540 5539 5538
5467 5468 5468 5469 5469 5470 5471 5473 5474 5476 5477 5479 5481 5483 5485 5487 5490 5493 5495 5498 5500 5503 5505 5508 5510 5513 5515 5518 5520 5522 5524 5526 5528 5529 5530 5532 5532 5533 5533 5532 5532 5531 5530 5528
5464 5464 5465 5465 5466 5467 5468 5469 5470 5471 5473 5474 5476 5478 5480 5482 5484 5487 5489 5491 5494 5496 5498 5500 5503 5505 5507 5509 5512 5514 5516 5518 5519 5521 5522 5523 5524 5524 5524 5523 5523 5522 5520 5519
5461 5461 5462 5462 5463 5463 5464 5465 5465 5466 5468 5469 5471 5473 5474 5476 5478 5480 5483 5485 5487 5489 5491 5493 5495 5497 5499 5501 5503 5506 5508 5509 5511 5512 5513 5514 5515 5515 5515 5514 5514 5513 5511 5510
5458 5458 5458 5458 5459 5459 5460 5461 5461 5462 5463 5464 5466 5467 5469 5471 5472 5474 5476 5478 5480 5482 5484 5486 5488 5489 5491 5493 5495 5497 5499 5501 5502 5503 5504 5505 5506 5506 5505 5505 5504 5504 5503 5502
5454 5454 5454 5454 5455 5455 5456 5456 5457 5458 5459 5460 5461 5462 5464 5465 5467 5469 5470 5472 5474 5475 5477 5479 5481 5482 5484 5486 5487 5489 5491 5492 5494 5495 5496 5496 5497 5496 5496 5496 5496 5495 5494 5493
5450 5450 5450 5450 5450 5451 5452 5452 5453 5453 5454 5455 5456 5458 5459 5460 5462 5464 5465 5467 5468 5469 5471 5472 5474 5475 5476 5478 5480 5481 5483 5484 5485 5486 5487 5488 5488 5488 5487 5487 5487 5486 5486 5485
5446 5445 5445 5446 5446 5446 5447 5447 5448 5449 5449 5450 5451 5452 5454 5455 5457 5458 5459 5461 5462 5463 5465 5466 5467 5468 5469 5470 5472 5473 5474 5476 5477 5478 5478 5479 5479 5479 5479 5479 5479 5479 5478 5478
5441 5441 5441 5441 5442 5442 5442 5442 5443 5444 5444 5445 5446 5447 5448 5450 5451 5453 5454 5455 5456 5457 5458 5459 5460 5461 5462 5463 5464 5465 5466 5467 5468 5469 5470 5471 5471 5471 5471 5472 5472 5472 5472 5472
5436 5436 5436 5436 5437 5437 5437 5438 5438 5438 5439 5440 5441 5442 5443 5444 5446 5447 5448 5449 5450 5451 5452 5453 5454 5455 5456 5457 5457 5458 5459 5460 5461 5461 5462 5463 5464 5464 5465 5465 5465 5466 5466 5466
5431 5431 5431 5431 5431 5432 5432 5433 5433 5433 5433 5434 5435 5436 5438 5439 5440 5441 5443 5444 5445 5446 5447 5447 5449 5449 5450 5451 5451 5452 5453 5453 5454 5454 5455 5456 5457 5458 5458 5459 5459 5460 5460 5461
5425 5426 5426 5426 5426 5427 5427 5427 5427 5428 5428 5429 5430 5431 5433 5434 5435 5436 5437 5438 5439 5440 5441 5442 5443 5444 5445 5445 5446 5446 5447 5447 5448 5449 5450 5450 5451 5452 5453 5453 5454 5455 5455 5456
5420 5420 5420 5420 5421 5421 5422 5422 5422 5423 5424 5424 5426 5427 5428 5429 5430 5431 5432 5433 5434 5435 5436 5437 5438 5439 5440 5441 5441 5442 5442 5443 5443 5444 5445 5445 5446 5447 5448 5448 5449 5450 5451 5451
5415 5415 5415 5415 5415 5416 5416 5417 5418 5418 5419 5420 5421 5422 5423 5424 5425 5426 5427 5428 5430 5431 5432 5433 5434 5435 5435 5436 5437 5437 5438 5438 5439 5439 5440 5441 5442 5442 5443 5444 5445 5446 5446 5447